Flag for Falkland Islands Weather past 2 weeks in Stanley, Falkland Islands

Now
39 °F

Light rain. Mostly cloudy.


Feels Like: 29 °F
Forecast: 40 / 42 °F
Wind: 23 mph from West

Location: Mount Pleasant Airport

Current Time: Jul 29, 2014 at 4:23:07 PM

Latest Report: Jul 29, 2014 at 3:50 PM


Visibility: 3 mi

Pressure: 29.56 "Hg

Humidity: 100%

Dew point: 39 °F

Location of StanleyLocation

Historic Weather in Stanley — Graph

°F

Stanley temperature yesterday

Maximum temperature yesterday: 39 °F (at 11:50 PM)
Minimum temperature yesterday: 30 °F (at 2:50 AM)
Average temperature yesterday: 35 °F

Past Weeks' High & Low Weather Summary

 TemperatureHumidityPressure
High46 °F (Jul 14, 3:50 PM)100% (Jul 15, 12:50 PM)30.18 "Hg (Jul 15, 12:50 PM)
Low21 °F (Jul 26, 8:50 PM)64% (Jul 24, 12:50 PM)29.27 "Hg (Jul 24, 2:50 AM)
Average34 °F89%29.69 "Hg
* Reported Jul 14 3:50 PM — Jul 29 3:06 PM, Stanley, Weather by CustomWeather, © 2014

Note: Actual official high and low records may vary slightly from our data, if they occured in-between our weather recording intervals... More about our weather records

Advertising

Stanley weather history for previous 24 hours

 ConditionsComfort  
Time TempWeatherWind HumidityBarometerVisibility
3:06 PM
Jul 29
41 °FRain showers. Mostly cloudy.25 mph93%29.53 "Hg6 mi
2:50 PM41 °FRain showers. Partly sunny.24 mph93%29.53 "Hg3 mi
1:50 PM41 °FMore clouds than sun.22 mph87%29.53 "HgN/A
12:50 PM41 °FMore clouds than sun.24 mph87%29.50 "HgN/A
11:50 AM39 °FMore clouds than sun.28 mph93%29.47 "HgN/A
10:50 AM39 °FMore clouds than sun.23 mph87%29.45 "HgN/A
9:50 AM39 °FOvercast.26 mph87%29.42 "HgN/A
8:50 AM37 °FOvercast.25 mph93%29.39 "HgN/A
7:50 AM39 °FSprinkles. Overcast.28 mph87%29.36 "Hg5 mi
6:50 AM39 °FRain. Overcast.31 mph87%29.33 "Hg2 mi
5:50 AM39 °FRain. Overcast.29 mph87%29.30 "Hg2 mi
4:50 AM39 °FRain. Overcast.25 mph81%29.27 "Hg2 mi
3:50 AM39 °FLight rain. Passing clouds.25 mph87%29.27 "Hg2 mi
2:50 AM39 °FPassing clouds.29 mph87%29.30 "HgN/A
1:50 AM39 °FLight rain. Low clouds.23 mph87%29.30 "Hg2 mi
12:50 AM39 °FLight rain. Partly cloudy.18 mph93%29.33 "Hg2 mi
11:50 PM
Jul 28
39 °FLight rain. Mostly cloudy.15 mph87%29.33 "Hg2 mi
10:50 PM37 °FLight rain. Mostly cloudy.14 mph100%29.39 "Hg2 mi
9:50 PM36 °FRain. Low clouds.15 mph93%29.45 "Hg2 mi
8:50 PM36 °FRain. Low clouds.28 mph93%29.50 "Hg2 mi
7:50 PM36 °FRain. Low clouds.29 mph93%29.56 "Hg2 mi
6:50 PM36 °FRain. Low clouds.26 mph93%29.62 "Hg2 mi
5:50 PM34 °FRain. More clouds than sun.29 mph93%29.68 "Hg2 mi
4:50 PM36 °FRain. Mostly cloudy.31 mph93%29.71 "Hg2 mi
Weather by CustomWeather, © 2014

See weather overviewHow to use our weather pages